This demonstration page uses our WeatherBlox Daily Observations layout. Learn more.

Left ArrowRight Arrow

39.95233, -75.16379

Hourly Observations for August 16, 2022

Temp ( °F °C ) Dew Point ( °F °C ) Humidity (%) Winds ( mph kmh ) Pressure ( in mb ) Visibility ( mi km ) Precip ( " mm )
12:54 am 00:54 Partly Cloudy 67 19.4 59 15 76 76 NE 3 6 29.99 1016 10 16 0.00 0.00
1:54 am 01:54 Partly Cloudy 69 20.6 59 15 70 70 Calm 29.98 1015 10 16 0.00 0.00
2:54 am 02:54 Partly Cloudy 68 20 57 13.9 68 68 N 5 7 29.98 1015 10 16 0.00 0.00
3:54 am 03:54 Mostly Cloudy 67 19.4 58 14.4 73 73 NNE 5 7 29.98 1015 10 16 0.00 0.00
4:54 am 04:54 Partly Cloudy 68 20 57 13.9 68 68 NNW 5 7 29.98 1015 10 16 0.00 0.00
5:54 am 05:54 Mostly Cloudy 66 18.9 57 13.9 73 73 N 5 7 29.99 1016 10 16 0.00 0.00
6:54 am 06:54 Mostly Cloudy 68 20 58 14.4 70 70 N 3 6 29.99 1016 10 16 0.00 0.00
7:54 am 07:54 Mostly Cloudy 72 22.2 63 17.2 73 73 NE 6 9 30.01 1016 10 16 0.00 0.00
8:54 am 08:54 Mostly Cloudy 73 22.8 61 16.1 66 66 NE 12 19 30.00 1016 10 16 0.00 0.00
9:54 am 09:54 Mostly Cloudy 76 24.4 56 13.3 50 50 ENE 13 20 29.99 1016 10 16 0.00 0.00
10:54 am 10:54 Mostly Cloudy 78 25.6 54 12.2 43 43 NE 12 19 30.00 1016 10 16 0.00 0.00
11:54 am 11:54 Mostly Cloudy 80 26.7 57 13.9 45 45 NE 14 22 30.01 1016 10 16 0.00 0.00
12:54 pm 12:54 Mostly Cloudy 83 28.3 54 12.2 37 37 ENE 9 15 30.01 1016 10 16 0.00 0.00
1:54 pm 13:54 Mostly Cloudy 85 29.4 55 12.8 36 36 E 9 15 29.99 1016 10 16 0.00 0.00
2:54 pm 14:54 Mostly Cloudy 85 29.4 54 12.2 35 35 E 14 22 29.98 1015 10 16 0.00 0.00
3:54 pm 15:54 Mostly Cloudy 82 27.8 53 11.7 37 37 E 16 26 29.98 1015 10 16 0.00 0.00
4:54 pm 16:54 Partly Cloudy 82 27.8 55 12.8 40 40 E 13 20 29.98 1015 10 16 0.00 0.00
5:54 pm 17:54 Partly Cloudy 82 27.8 54 12.2 38 38 E 14 22 29.98 1015 10 16 0.00 0.00
6:54 pm 18:54 Partly Cloudy 80 26.7 56 13.3 44 44 ESE 9 15 29.98 1015 10 16 0.00 0.00
7:54 pm 19:54 Mostly Sunny 77 25 57 13.9 50 50 SSE 5 7 29.98 1015 10 16 0.00 0.00
8:54 pm 20:54 Mostly Clear 75 23.9 58 14.4 55 55 SSE 5 7 29.99 1016 10 16 0.00 0.00
9:54 pm 21:54 Clear 72 22.2 60 15.6 66 66 ESE 6 9 29.99 1016 10 16 0.00 0.00
10:54 pm 22:54 Clear 71 21.7 60 15.6 68 68 E 3 6 29.99 1016 10 16 0.00 0.00
11:54 pm 23:54 Clear 70 21.1 60 15.6 71 71 Calm 30.00 1016 10 16 0.00 0.00

Powered by AerisWeather